Regional Weather Roundup
Issued by NWS

Home | Current Version | Previous Version | Text Only | Print | Product List | Glossary Off
Versions: 1 2 3 4 5 6 7 8 9 10 11 12 13 14 15 16 17 18 19 20 21 22 23 24 25 26 27 28 29 30 31 32 33 34 35 36 37 38 39 40 41 42 43 44 45 46 47 48 49 50

000
ASUS43 KMPX 270701
RWRMN
WEATHER ROUNDUP FOR MINNESOTA
NATIONAL WEATHER SERVICE TWIN CITIES/CHANHASSEN MN
200 AM CDT WED MAY 27 2015


NOTE: "FAIR" INDICATES FEW OR NO CLOUDS BELOW 12,000 FEET WITH NO
SIGNIFICANT WEATHER AND/OR OBSTRUCTIONS TO VISIBILITY. N/A MEANS
CURRENT SKY AND/OR WEATHER CONDITIONS ARE NOT AVAILABLE.

MNZ060>063-068>070-270800-
   Twin Cities Metro

CITY           SKY/WX    TMP DP  RH WIND       PRES   REMARKS
TWIN CITIES    CLOUDY    57  55  93 W3        29.83R
ST PAUL        CLOUDY    56  56 100 W3        29.83R
CRYSTAL        CLOUDY    56  55  97 CALM      29.81S
BLAINE         CLOUDY    57  57 100 CALM      29.82S FOG
LAKEVILLE      CLOUDY    55  54  94 W3        29.83S
EDEN PRAIRIE   CLOUDY    56  55  97 CALM      29.82S
SOUTH ST PAUL  CLOUDY    57  56  95 CALM      29.82S
LAKE ELMO      FAIR      55  55 100 CALM      29.83S FOG
$$
MNZ001>005-007-008-013>017-022>024-027-028-270800-
   Northwest Minnesota

CITY           SKY/WX    TMP DP  RH WIND       PRES   REMARKS
BEMIDJI        CLEAR     49  47  94 CALM      29.78S
HALLOCK        PTCLDY    59  50  72 N6        29.78R
ROSEAU         CLEAR     55  50  82 NW5       29.77R
WARROAD        CLEAR     57  52  82 NW12      29.77R
THIEF RVR FALL CLEAR     57  52  82 S3        29.78S
CROOKSTON      CLEAR     57  52  82 CALM      29.78S
FOSSTON        CLEAR     55  52  88 S6        29.79S
DETROIT LAKES  CLEAR     59  54  82 SW3       29.81S
MOORHEAD       CLEAR     57  52  82 SW5       29.80S
PARK RAPIDS    PTCLDY    59  53  80 CALM      29.79F
MAHNOMEN       FAIR      56  53  92 S8        29.79S
$$
MNZ006-009>011-018-025>026-270800-
   North Central Minnesota

CITY           SKY/WX    TMP DP  RH WIND       PRES   REMARKS
BAUDETTE       CLEAR     58  50  75 CALM      29.75S
FLAG ISLAND    CLEAR     61  52  72 NW10      29.75R
INTL FALLS     PTCLDY    55  51  86 CALM      29.73F
WASKISH        CLEAR     59  55  88 CALM      29.76F
BIG FORK       PTCLDY    54  52  94 CALM      29.78F
LONGVILLE      PTCLDY    54  52  94 CALM      29.79S
GRAND RAPIDS   PTCLDY    52  46  82 S3        29.80S
CRANE LAKE     MOCLDY    48  48 100 S3        29.77S
COOK           MOCLDY    55  52  88 SW6       29.77F
WALKER         FAIR      54  53  96 CALM      29.78F
$$
MNZ012-019>021-037-270800-
   Northeast Minnesota

CITY           SKY/WX    TMP DP  RH WIND       PRES   REMARKS
DULUTH         CLOUDY    54  50  86 CALM      29.78S
HIBBING        MOCLDY    48  46  93 CALM      29.78F
EVELETH        MOCLDY    54  50  87 W3        29.79F
DULUTH HARBOR  CLOUDY    54  52  94 S5        29.78F
TWO HARBORS    CLOUDY    54  48  82 CALM      29.76S
GRAND MARAIS     N/A     43  41  93 CALM      29.72F
G MARAIS ARPRT CLOUDY    52  46  82 CALM      29.76F
$$
MNZ029>031-032-039>041-046>048-054>057-064-270800-
   West Central Minnesota

CITY           SKY/WX    TMP DP  RH WIND       PRES   REMARKS
FERGUS FALLS   CLEAR     57  55  94 SW5       29.82R
WHEATON        PTCLDY    57  48  72 SW5       29.84S
MORRIS         PTCLDY    55  54  94 S3        29.82S
ALEXANDRIA     PTCLDY    56  54  93 SW6       29.83F
ELBOW LAKE     FAIR      55  52  92 SW8       29.82S
WADENA         PTCLDY    55  52  88 SW5       29.80F
GLENWOOD       PTCLDY    54  54 100 SW5       29.84S
APPLETON       PTCLDY    57  54  88 S5        29.83F
BENSON         PTCLDY    55  54  94 SW5       29.83F
ORTONVILLE     PTCLDY    57  52  82 W5        29.84S
MADISON        PTCLDY    55  52  88 SW3       29.85S
WILLMAR        FAIR      57  55  94 SW5       29.85S
$$
MNZ033>034-036-042>043-049>051-058-059-270800-
   Central Minnesota

CITY           SKY/WX    TMP DP  RH WIND       PRES   REMARKS
ST CLOUD       CLOUDY    53  53 100 CALM      29.82S
SAUK CENTRE    FAIR      56  54  95 SW6       29.83S
PAYNESVILLE    MOCLDY    50  50 100 SW3       29.84S FOG
AITKIN           N/A     52  46  82 CALM      29.79S HAZE
PINE RIVER     PTCLDY    54  54 100 CALM      29.84S
BRAINERD       MOCLDY    54  53  97 SW3       29.81S
STAPLES        PTCLDY    54  52  94 CALM      29.81S
LONG PRAIRIE   FAIR      54  54 100 SW7       29.83S
LITTLE FALLS   MOCLDY    54  52  94 CALM      29.81F
LITCHFIELD     MOCLDY    57  57 100 SW3       29.84S
BUFFALO        CLOUDY    55  53  94 CALM      29.84S FOG
MAPLE LAKE     CLOUDY    56  55  96 CALM      29.84R
$$
MNZ037-044-045-052-053-270800-
   East Central Minnesota

CITY           SKY/WX    TMP DP  RH WIND       PRES   REMARKS
PRINCETON      CLOUDY    54  52  94 CALM      29.83R
MORA           CLOUDY    50  46  87 CALM      29.83S
CAMBRIDGE      CLOUDY    55  48  76 CALM      29.80S
RUSH CITY      CLOUDY    53  51  95 CALM      29.82R
MOOSE LAKE     CLOUDY    50  50 100 SW5       29.79R
HINCKLEY       PTSUNNY   52  52 100 CALM      29.81S
CLOQUET        CLOUDY    48  46  93 W3        29.79S
MCGREGOR       CLOUDY    54  52  94 CALM      29.80S
$$
MNZ071>073-080-081-089-090-097-098-270800-
   Southwest Minnesota

CITY           SKY/WX    TMP DP  RH WIND       PRES   REMARKS
MONTEVIDEO     PTCLDY    57  55  94 W6        29.85S
GRANITE FALLS  MOCLDY    55  53  95 SW6       29.86S
CANBY          PTCLDY    56  51  82 W7        29.87S
MARSHALL       MOCLDY    55  48  76 W8        29.86R
REDWOOD FALLS  MOCLDY    55  53  93 SW6       29.85R
OLIVIA         MOCLDY    52  50  93 SW5       29.84S
PIPESTONE      MOCLDY    54  52  94 W5        29.89S
WINDOM         CLOUDY    55  54  94 CALM      29.88S
WORTHINGTON    MOCLDY    55  52  88 SW7       29.90S
JACKSON        CLOUDY    55  54  94 SW5       29.89F
TRACY          PTCLDY    56  54  91 SW7       29.87S
SLAYTON        MOCLDY    54  52  94 CALM      29.90R
$$
MNZ065>067-074>077-082>085-091>093-270800-
   South Central Minnesota

CITY           SKY/WX    TMP DP  RH WIND       PRES   REMARKS
MANKATO        CLOUDY    55  54  94 W6        29.85S
NEW ULM        CLOUDY    55  55 100 SW3       29.85
ST JAMES       CLOUDY    57  55  94 SW6       29.88S
FAIRMONT       CLOUDY    57  52  82 W9        29.88R
GLENCOE        CLOUDY    57  56  97 W3        29.84R
FARIBAULT      CLOUDY    55  55 100 SW3       29.85S FOG
OWATONNA       CLOUDY    57  55  94 W5        29.85S FOG
WASECA         CLOUDY    55  54  94 CALM      29.86F FOG
ALBERT LEA     CLOUDY    57  57 100 CALM      29.86S FOG
$$
MNZ078>079-086>088-094>096-270800-
   Southeast Minnesota

CITY           SKY/WX    TMP DP  RH WIND       PRES   REMARKS
ROCHESTER      LGT RAIN  57  55  93 W9        29.85S
RED WING       LGT RAIN  57  55  94 W6        29.82R
STANTON        CLOUDY    57  55  92 SW5       29.82S
DODGE CENTER   DRIZZLE   57  55  94 W9        29.85R
WINONA         DRIZZLE   59  55  88 W5        29.82R
AUSTIN         DRIZZLE   57  55  94 W7        29.85S
PRESTON        CLOUDY    56  55  94 W9        29.84S
$$
ABBREVIATIONS USED IN REMARKS
   TC - TEMPERATURES IN CELSIUS
  WCI - WIND CHILL INDEX
   HX - HEAT INDEX
  VSB - VISIBILITY
$$


USA.gov is the U.S. government's official web portal to all federal, state and local government web resources and services.